Starlink 32046

operational
NORAD ID: 60198 Int'l Des: 2024-124 Owner: SPXS Country: US Constellation: starlink
LEOCIRCULAR

关于 Starlink 32046

正在加载描述...

实时位置

正在加载3D地球...

即将过境

高度历史

Altitude vs Time

uPlot chart will show altitude changes over time

两行轨道根数

1 60198U 24124R 25308.92870913 -.00001247 00000-0 -29990-4 0 9993
2 60198 53.1508 182.0359 0001158 82.3983 277.7150 15.30180478 76429
Epoch: Nov 4, 2025 • Age: 8 hours

当前状态

高度 481.1 km
速度 7.63 km/s
星下点 53.26°N, 130.91°E
发射日期 Jul 3, 2024
运行时间 1.3 years
类型 internet

技术详情

分类 Payload
质量 730.00 kg
干质量 700.00 kg
总质量 730.00 kg
长度 0.30 m
直径 4.10 m
跨度 29.00 m
形状 Box + pan
制造商 SPXS
平台类型 Starlink V2M
阶段状态 In Orbit
所有者/国家 SPXS/US

大型星座

Loading constellations...